Date String (YYYY-MM-DD hh:mm:ss) UTC,Instrument flags,Ambient pressure (hPa),Sample flow (lpm),Bypass flow (lpm),Sample temperature (°C),Ambient temperature (°C),ASC tube jacket temperature (°C),LED temperature (°C),Box temperature (°C),Sample RH (%),Span deviation,Mass concentration (μg/m³),Mass concentration (μg/m³),Mass concentration (μg/m³)
DateTimeUTC,F1_M11,P_M11,Q1_M11,Q2_M11,T1_M11,T2_M11,T3_M11,T4_M11,T5_M11,U1_M11,ZSPAN_M11,X0_M11,X2_M11,X1_M11
2022-09-12 15:00:00,,0829.5,5.00,0.00,28.9,27.7,00.0,37.6,30.8,14.6,0001.3,0012.54,0008.98,0008.63
2022-09-12 15:01:00,,0829.5,4.99,0.00,29.0,27.7,00.0,37.7,30.8,14.6,0001.0,0012.14,0008.98,0008.63
2022-09-12 15:02:00,,0829.5,5.00,0.00,29.0,27.7,00.0,37.7,30.9,14.9,0001.4,0012.06,0008.97,0008.62
2022-09-12 15:03:00,,0829.5,5.00,0.00,29.0,27.8,00.0,37.7,30.9,14.5,0001.3,0012.10,0008.98,0008.62
2022-09-12 15:04:00,,0829.5,5.00,0.00,29.0,27.8,00.0,37.7,30.9,14.1,0001.0,0012.15,0009.00,0008.63
2022-09-12 15:05:00,,0829.5,5.00,0.00,29.0,27.8,00.0,37.7,30.9,15.0,0001.6,0012.08,0008.99,0008.61
2022-09-12 15:06:00,,0829.5,4.99,0.00,29.0,27.8,00.0,37.7,30.9,15.2,0002.0,0011.79,0008.96,0008.58
2022-09-12 15:07:00,,0829.5,5.00,0.00,29.1,27.8,00.0,37.7,30.9,14.4,0002.1,0012.07,0008.96,0008.55
2022-09-12 15:08:00,,0829.5,5.00,0.00,29.1,27.8,00.0,37.8,30.9,13.9,0002.4,0012.51,0008.99,0008.54
2022-09-12 15:09:00,,0829.5,4.99,0.00,29.1,27.9,00.0,37.8,31.0,12.7,0002.5,0012.54,0009.01,0008.56
2022-09-12 15:10:00,,0829.5,4.99,0.00,29.1,27.9,00.0,37.8,31.0,13.1,0003.0,0012.79,0009.02,0008.58
2022-09-12 15:11:00,,0829.5,5.00,0.00,29.1,27.9,00.0,37.8,31.0,12.6,0002.8,0012.79,0009.01,0008.58
2022-09-12 15:12:00,,0829.5,5.01,0.00,29.2,27.9,00.0,37.8,31.0,13.3,0002.3,0013.23,0008.99,0008.56
2022-09-12 15:13:00,,0829.5,5.01,0.00,29.2,27.9,00.0,37.9,31.0,14.2,0002.5,0013.35,0008.99,0008.56
2022-09-12 15:14:00,,0829.5,5.00,0.00,29.2,28.0,00.0,37.9,31.1,15.0,0002.8,0013.83,0008.95,0008.55
2022-09-12 15:15:00,,0829.5,5.01,0.00,29.2,28.0,00.0,37.9,31.1,14.9,0002.9,0013.99,0008.94,0008.53
2022-09-12 15:16:00,,0829.5,4.98,0.00,29.2,28.0,00.0,37.9,31.1,15.4,0002.4,0013.89,0008.89,0008.52
2022-09-12 15:17:00,,0829.5,5.00,0.00,29.2,28.0,00.0,37.9,31.1,14.8,0002.2,0013.86,0008.88,0008.51
2022-09-12 15:18:00,,0829.5,5.01,0.00,29.3,28.1,00.0,37.9,31.1,14.9,0002.1,0013.82,0008.89,0008.51
2022-09-12 15:19:00,,0829.5,5.01,0.00,29.3,28.1,00.0,37.9,31.1,14.5,0001.9,0013.25,0008.89,0008.53
2022-09-12 15:20:00,,0829.5,4.99,0.00,29.3,28.1,00.0,38.0,31.2,14.8,0002.1,0013.24,0008.91,0008.53
2022-09-12 15:21:00,,0829.5,5.00,0.00,29.3,28.1,00.0,38.0,31.2,14.2,0002.1,0012.97,0008.89,0008.49
2022-09-12 15:22:00,,0829.5,5.00,0.00,29.3,28.2,00.0,38.0,31.2,12.0,0002.2,0013.35,0008.93,0008.50
2022-09-12 15:23:00,,0829.5,5.01,0.00,29.4,28.2,00.0,38.0,31.2,14.4,0002.3,0014.16,0008.97,0008.52
2022-09-12 15:24:00,,0829.5,5.01,0.00,29.4,28.2,00.0,38.0,31.3,15.3,0002.2,0014.32,0008.96,0008.52
2022-09-12 15:25:00,,0829.5,4.98,0.00,29.4,28.2,00.0,38.1,31.3,15.1,0002.2,0014.67,0008.97,0008.53
2022-09-12 15:26:00,,0829.5,5.00,0.00,29.4,28.3,00.0,38.1,31.3,14.9,0002.3,0015.25,0008.97,0008.53
2022-09-12 15:27:00,,0829.5,5.00,0.00,29.5,28.3,00.0,38.1,31.3,15.4,0002.6,0015.27,0009.00,0008.56
2022-09-12 15:28:00,,0829.5,4.99,0.00,29.5,28.3,00.0,38.1,31.3,16.0,0002.9,0015.31,0009.03,0008.59
2022-09-12 15:29:00,,0829.5,5.01,0.00,29.5,28.3,00.0,38.1,31.3,16.6,0002.9,0015.35,0009.03,0008.60
2022-09-12 15:30:00,,0829.5,5.00,0.00,29.5,28.3,00.0,38.2,31.4,17.3,0003.1,0015.50,0009.05,0008.59
2022-09-12 15:31:00,,0829.5,5.01,0.00,29.5,28.4,00.0,38.2,31.4,17.7,0002.8,0015.88,0009.02,0008.58
2022-09-12 15:32:00,,0829.5,4.99,0.00,29.5,28.4,00.0,38.2,31.4,13.3,0002.4,0015.84,0009.02,0008.59
2022-09-12 15:33:00,,0829.5,5.00,0.00,29.6,28.4,00.0,38.2,31.4,12.0,0002.2,0015.66,0009.02,0008.61
2022-09-12 15:34:00,,0829.5,5.01,0.00,29.6,28.4,00.0,38.2,31.4,11.6,0002.4,0015.04,0009.07,0008.67
2022-09-12 15:35:00,,0829.5,4.98,0.00,29.6,28.4,00.0,38.2,31.5,15.1,0002.3,0014.30,0009.09,0008.71
2022-09-12 15:36:00,,0829.5,5.01,0.00,29.6,28.5,00.0,38.3,31.5,15.1,0002.9,0013.92,0009.12,0008.74
2022-09-12 15:37:00,,0829.5,5.00,0.00,29.7,28.5,00.0,38.3,31.5,13.2,0002.2,0013.50,0009.20,0008.81
2022-09-12 15:38:00,,0829.5,5.00,0.00,29.7,28.5,00.0,38.3,31.5,13.6,0002.2,0013.02,0009.26,0008.86
2022-09-12 15:39:00,,0829.5,4.99,0.00,29.7,28.5,00.0,38.3,31.5,14.6,0002.4,0013.09,0009.31,0008.87
2022-09-12 15:40:00,,0829.5,5.00,0.00,29.7,28.6,00.0,38.4,31.5,14.1,0002.2,0013.19,0009.36,0008.90
2022-09-12 15:41:00,,0829.5,5.00,0.00,29.7,28.6,00.0,38.4,31.6,13.6,0002.1,0013.60,0009.40,0008.93
2022-09-12 15:42:00,,0829.5,5.00,0.00,29.8,28.6,00.0,38.4,31.6,13.7,0002.2,0014.00,0009.42,0008.97
2022-09-12 15:43:00,,0829.5,5.01,0.00,29.8,28.6,00.0,38.4,31.7,13.8,0002.6,0013.93,0009.46,0009.02
2022-09-12 15:44:00,,0829.5,4.98,0.00,29.8,28.7,00.0,38.4,31.7,14.1,0003.1,0014.05,0009.48,0009.04
2022-09-12 15:45:00,,0829.5,5.00,0.00,29.8,28.7,00.0,38.5,31.7,14.0,0002.9,0014.00,0009.46,0009.03
2022-09-12 15:46:00,,0829.5,5.00,0.00,29.8,28.7,00.0,38.5,31.7,14.3,0002.9,0014.03,0009.44,0009.00
2022-09-12 15:47:00,,0829.5,5.01,0.00,29.9,28.7,00.0,38.5,31.7,14.2,0002.7,0014.19,0009.46,0009.01
2022-09-12 15:48:00,,0829.5,5.00,0.00,29.9,28.8,00.0,38.5,31.7,14.4,0002.5,0014.24,0009.41,0008.98
2022-09-12 15:49:00,,0829.5,4.99,0.00,29.9,28.8,00.0,38.6,31.8,13.1,0002.3,0014.30,0009.39,0008.98
2022-09-12 15:50:00,,0829.5,5.00,0.00,29.9,28.8,00.0,38.6,31.8,12.7,0002.0,0014.44,0009.44,0009.03
2022-09-12 15:51:00,,0829.5,5.00,0.00,30.0,28.8,00.0,38.6,31.8,14.3,0002.0,0014.69,0009.49,0009.06
2022-09-12 15:52:00,,0829.5,5.00,0.00,30.0,28.9,00.0,38.6,31.9,13.6,0002.0,0014.37,0009.51,0009.09
2022-09-12 15:53:00,,0829.5,5.01,0.00,30.0,28.9,00.0,38.6,31.9,13.3,0002.0,0014.56,0009.53,0009.12
2022-09-12 15:54:00,,0829.5,4.99,0.00,30.0,28.9,00.0,38.7,31.9,12.8,0002.1,0014.49,0009.54,0009.14
2022-09-12 15:55:00,,0829.5,4.99,0.00,30.0,28.9,00.0,38.7,31.9,13.8,0002.0,0014.44,0009.57,0009.16
2022-09-12 15:56:00,,0829.5,5.01,0.00,30.1,29.0,00.0,38.7,31.9,14.3,0002.1,0014.58,0009.57,0009.16
2022-09-12 15:57:00,,0829.5,5.00,0.00,30.1,29.0,00.0,38.7,31.9,13.3,0002.0,0014.51,0009.55,0009.16
2022-09-12 15:58:00,,0829.5,5.01,0.00,30.1,29.0,00.0,38.7,32.0,14.6,0002.0,0014.58,0009.57,0009.18
2022-09-12 15:59:00,,0829.5,4.98,0.00,30.1,29.0,00.0,38.8,32.0,16.1,0002.0,0015.36,0009.62,0009.19
